TimeEDT,TemperatureF,Dew PointF,Humidity,Sea Level PressureIn,VisibilityMPH,Wind Direction,Wind SpeedMPH,Gust SpeedMPH,PrecipitationIn,Events,Conditions,WindDirDegrees,DateUTC
12:38 AM,37.4,33.8,87,29.72,10.0,WNW,9.2,-,N/A,,Mostly Cloudy,300,2011-10-26 04:38:00
12:53 AM,37.9,34.0,86,29.73,10.0,NW,9.2,-,N/A,,Overcast,310,2011-10-26 04:53:00
1:53 AM,36.0,34.0,93,29.75,10.0,WNW,6.9,-,N/A,,Overcast,290,2011-10-26 05:53:00
2:04 AM,35.6,33.8,93,29.73,10.0,WNW,5.8,-,N/A,,Overcast,290,2011-10-26 06:04:00
2:53 AM,37.0,33.1,86,29.75,10.0,WNW,6.9,-,N/A,,Mostly Cloudy,300,2011-10-26 06:53:00
3:53 AM,37.0,32.0,82,29.73,10.0,NW,16.1,21.9,N/A,,Scattered Clouds,320,2011-10-26 07:53:00
4:53 AM,36.0,30.9,82,29.73,10.0,NNW,16.1,-,N/A,,Clear,330,2011-10-26 08:53:00
5:53 AM,34.0,30.0,85,29.74,10.0,NW,12.7,-,N/A,,Clear,310,2011-10-26 09:53:00
6:53 AM,33.8,28.4,81,29.72,10.0,NW,13.8,-,N/A,,Clear,310,2011-10-26 10:53:00
7:53 AM,33.8,28.4,81,29.74,10.0,WNW,8.1,-,N/A,,Scattered Clouds,300,2011-10-26 11:53:00
8:03 AM,33.8,28.4,81,29.73,10.0,NW,5.8,-,N/A,,Mostly Cloudy,310,2011-10-26 12:03:00
8:53 AM,35.1,30.0,82,29.75,10.0,NW,10.4,-,N/A,,Overcast,310,2011-10-26 12:53:00
9:53 AM,37.0,30.0,76,29.75,10.0,NW,12.7,19.6,N/A,,Overcast,320,2011-10-26 13:53:00
10:53 AM,39.2,30.2,70,29.73,10.0,NW,17.3,25.3,N/A,,Mostly Cloudy,320,2011-10-26 14:53:00
11:53 AM,39.0,30.0,70,29.75,10.0,WNW,17.3,24.2,N/A,,Mostly Cloudy,300,2011-10-26 15:53:00
12:53 PM,39.9,28.9,65,29.73,10.0,WNW,17.3,26.5,N/A,,Overcast,290,2011-10-26 16:53:00
1:53 PM,39.9,27.0,60,29.73,10.0,NW,16.1,26.5,N/A,,Overcast,310,2011-10-26 17:53:00
2:53 PM,42.8,28.4,57,29.70,10.0,WNW,18.4,25.3,N/A,,Mostly Cloudy,290,2011-10-26 18:53:00
3:53 PM,39.9,27.0,60,29.72,10.0,NW,11.5,-,N/A,,Overcast,310,2011-10-26 19:53:00
4:53 PM,39.0,27.0,62,29.73,10.0,WNW,15.0,-,N/A,,Overcast,300,2011-10-26 20:53:00
5:53 PM,36.0,26.1,67,29.74,10.0,NNW,8.1,-,N/A,,Scattered Clouds,330,2011-10-26 21:53:00
6:53 PM,33.1,26.1,75,29.74,10.0,NW,11.5,-,N/A,,Clear,320,2011-10-26 22:53:00
7:53 PM,32.0,25.0,75,29.75,10.0,NW,5.8,-,N/A,,Clear,310,2011-10-26 23:53:00
8:53 PM,30.9,24.1,76,29.74,10.0,NW,9.2,-,N/A,,Clear,310,2011-10-27 00:53:00
9:53 PM,30.0,23.0,75,29.75,10.0,WNW,10.4,-,N/A,,Clear,300,2011-10-27 01:53:00
10:53 PM,28.9,23.0,78,29.74,10.0,WNW,9.2,-,N/A,,Clear,290,2011-10-27 02:53:00
11:53 PM,28.0,21.9,78,29.74,10.0,WNW,6.9,-,N/A,,Clear,290,2011-10-27 03:53:00